Alexandria, LA

5:38 PM CST on February 05, 2016 (GMT -0600)
Alexandria International

Weather History for KAEX - December, 1999

Change the Weather History Date:

Wednesday, December 29, 1999

  Actual Average Record
Temperature  
Mean Temperature 48 °F 49 °F  
Max Temperature 66 °F 59 °F 78 °F (1984)
Min Temperature 30 °F 39 °F 10 °F (1894)
Degree Days  
Heating Degree Days 17 16  
Month to date heating degree days 433  
Since 1 July heating degree days 758  
Moisture  
Dew Point 36 °F    
Average Humidity 70    
Maximum Humidity 96    
Minimum Humidity 34    
Precipitation  
Precipitation 0.00 in 0.12 in 3.05 in (1927)
Month to date precipitation 5.86  
Year to date precipitation 55.66  
Snow  
Snow 0.00 in - 8.00 in (1901)
Month to date snowfall  
Since 1 July snowfall  
Snow Depth -    
Sea Level Pressure  
Sea Level Pressure 30.04 in    
Wind  
Wind Speed 2 mph (SE)    
Max Wind Speed 7 mph    
Max Gust Speed -    
Visibility 9 miles    
Events      
T = Trace of Precipitation, MM = Missing Value Source: NWS Daily Summary

Daily Weather History Graph

Daily Weather History Graph

Search for Another Location

Airport or City:

Trip Planner

Search our weather history database for the weather conditions in past years. The results will help you decide how hot, cold, wet, or windy it might be!

Date:

Astronomy

Dec. 29, 1999 Rise Set
Actual Time 7:08 AM CST 5:16 PM CST
Civil Twilight 6:41 AM CST 5:42 PM CST
Nautical Twilight 6:11 AM CST 6:13 PM CST
Astronomical Twilight 5:41 AM CST 6:42 PM CST
Moon No Moon Rise 12:22 PM CST (12/29)
Length of Visible Light 11h 01m
Length of Day
10h 07m
Waning Gibbous, 48% of the Moon is Illuminated
Dec 29
Waning Gibbous
Jan 6
New
Jan 14
First Quarter
Jan 20
Full
Jan 28
Last Quarter

Hourly Weather History & Observations

Time (CST) Temp. Windchill Dew Point Humidity Pressure Visibility Wind Dir Wind Speed Gust Speed Precip Events Conditions
12:53 AM 35.1 °F 32.2 °F 32.0 °F 89% 30.04 in 10.0 mi SSW 3.5 mph - N/A   Clear
1:53 AM 36.0 °F - 30.9 °F 82% 30.04 in 10.0 mi Calm Calm - N/A   Clear
2:53 AM 35.1 °F 32.2 °F 30.9 °F 85% 30.03 in 10.0 mi ESE 3.5 mph - N/A   Clear
3:53 AM 34.0 °F - 30.9 °F 89% 30.03 in 10.0 mi Calm Calm - N/A   Clear
4:53 AM 33.1 °F - 30.9 °F 92% 30.03 in 10.0 mi Calm Calm - N/A   Clear
5:53 AM 32.0 °F - 30.0 °F 92% 30.04 in 10.0 mi Calm Calm - N/A   Clear
6:53 AM 30.9 °F - 30.0 °F 96% 30.06 in 10.0 mi Calm Calm - N/A   Clear
7:53 AM 33.1 °F - 32.0 °F 96% 30.08 in 10.0 mi Calm Calm - N/A   Clear
8:53 AM 42.1 °F - 36.0 °F 79% 30.10 in 0.2 mi Calm Calm - N/A   Haze
9:08 AM 44.6 °F - 35.6 °F 71% 30.08 in 1.2 mi Calm Calm - N/A   Haze
9:15 AM 44.6 °F - 37.4 °F 76% 30.08 in 10.0 mi Calm Calm - N/A   Clear
9:53 AM 51.1 °F - 37.9 °F 61% 30.11 in 10.0 mi Calm Calm - N/A   Clear
10:53 AM 55.9 °F - 37.0 °F 49% 30.10 in 10.0 mi ESE 5.8 mph - N/A   Clear
11:53 AM 61.0 °F - 37.0 °F 41% 30.07 in 10.0 mi ESE 5.8 mph - N/A   Clear
12:53 PM 64.0 °F - 37.0 °F 37% 30.04 in 10.0 mi Variable 6.9 mph - N/A   Clear
1:53 PM 66.0 °F - 37.0 °F 34% 30.01 in 10.0 mi Calm Calm - N/A   Clear
2:53 PM 66.0 °F - 37.9 °F 36% 30.01 in 10.0 mi Variable 3.5 mph - N/A   Clear
3:53 PM 66.9 °F - 37.9 °F 34% 30.00 in 10.0 mi ESE 3.5 mph - N/A   Clear
4:53 PM 63.0 °F - 39.9 °F 43% 30.00 in 10.0 mi ESE 4.6 mph - N/A   Clear
5:53 PM 55.0 °F - 39.0 °F 55% 30.00 in 10.0 mi Calm Calm - N/A   Clear
6:53 PM 52.0 °F - 37.9 °F 59% 30.01 in 10.0 mi Calm Calm - N/A   Clear
7:53 PM 48.9 °F - 39.9 °F 71% 30.01 in 10.0 mi SE 4.6 mph - N/A   Clear
8:53 PM 45.0 °F 43.5 °F 37.9 °F 76% 30.01 in 10.0 mi ESE 3.5 mph - N/A   Clear
9:53 PM 43.0 °F - 39.0 °F 86% 30.00 in 10.0 mi Calm Calm - N/A   Clear
10:53 PM 37.9 °F 33.5 °F 36.0 °F 93% 30.00 in 10.0 mi SSE 5.8 mph - N/A   Clear
11:53 PM 43.0 °F 39.5 °F 39.0 °F 86% 30.00 in 10.0 mi SE 5.8 mph - N/A   Clear